Regional Weather Roundup
Issued by NWS Albany, NY

Home | Current Version | Previous Version | Text Only | Print | Product List | Glossary On
Versions: 1 2 3 4 5 6 7 8 9 10 11 12 13 14 15 16 17 18 19 20 21 22 23 24 25 26 27 28 29 30 31 32 33 34 35 36 37 38 39 40 41 42 43 44 45 46 47 48 49 50
244
ASUS41 KALY 232210
RWRALY

NEW YORK STATE HOURLY WEATHER ROUNDUP
NATIONAL WEATHER SERVICE ALBANY NY
600 PM EDT MON MAY 23 2016

NOTE: "FAIR" INDICATES FEW OR NO CLOUDS BELOW 12,000 FEET WITH NO
SIGNIFICANT WEATHER AND/OR NO OBSTRUCTIONS TO VISIBILITY.

NYZ032-033-038>043-046>054-057>066-NYZ062>081-082-084-232300-
EAST


CITY           SKY/WX    TMP DP  RH WIND       PRES   REMARKS
ALBANY         MOSUNNY   80  34  19 NE14G21   29.84F
GLENS FALLS    SUNNY     78  33  19 NE14      29.86F
POUGHKEEPSIE   CLOUDY    80  49  33 N7        29.81F
NEWBURGH       MOSUNNY   79  52  38 E7        29.84F
MONTGOMERY     PTSUNNY   76  48  37 E9        29.82F
WHITE PLAINS   CLOUDY    69  51  52 S7        29.85S THUNDER
ISLIP          PTSUNNY   68  45  43 S8        29.85F
NEW YORK CITY  CLOUDY    68  54  60 S13       29.85F
CENTRAL PARK   LGT RAIN  64  53  67 S6        29.89S
$$

NYZ005>009-017-018-044>046-055-056-232300-
CENTRAL


CITY           SKY/WX    TMP DP  RH WIND       PRES   REMARKS
FULTON         SUNNY     76  45  33 NW13      29.92F
SYRACUSE       MOSUNNY   76  39  26 NW13      29.90F
ROME           SUNNY     79  45  29 N13       29.87F
ELMIRA         SUNNY     76  39  26 NE15      29.91F
BINGHAMTON     PTSUNNY   72  42  34 N13G24    29.92S
MONTICELLO     MOSUNNY   73  37  27 NE13      29.89S
$$

NYZ026>034-041>043-087-232300-
NORTH


CITY           SKY/WX    TMP DP  RH WIND       PRES   REMARKS
WATERTOWN      SUNNY     70  44  39 W13G20    29.91F
FORT DRUM      NOT AVBL
MASSENA        SUNNY     80  41  24 CALM      29.89F HAZE
SARANAC LAKE   SUNNY     76  28  17 VRB7      29.91F
PLATTSBURGH    SUNNY     78  37  22 VRB7      29.88F
$$

NYZ001>004-010>016-019>021-085-232300-
WEST


CITY           SKY/WX    TMP DP  RH WIND       PRES   REMARKS
NIAGARA FALLS  SUNNY     80  37  21 E7        29.95F
BUFFALO        MOSUNNY   77  38  24 NW6       29.96F
DUNKIRK        SUNNY     67  44  43 W8        29.98F
JAMESTOWN        N/A    N/A N/A N/A MISG        N/A
WELLSVILLE     SUNNY     73  39  29 VRB7      29.98F
ROCHESTER      SUNNY     77  42  28 NE10      29.94F
PENN YAN       SUNNY     77  36  22 N8        29.95F
$$

             KEY
       WCI = WIND CHILL INDEX
       VSB = VISIBILITY
       HX  = HEAT INDEX
$$




USA.gov is the U.S. government's official web portal to all federal, state and local government web resources and services.